Location: Acheville
(50.3840°N, 2.8827°E)
Time: 11:59:01
(UTC+00:00)

Cosmos 2123 Rocket - Pass Details

Date: 24 October 2021
Orbit: 961 x 992 km, 82.9° (Epoch: 05 December)

Event Time Altitude Azimuth Distance (km) Brightness Sun altitude
Rises 17:51:49 0° 349° (N) 3,721 7.1 -12.3°
Reaches altitude 10° 17:54:21 10° 349° (N) 2,767 6.5 -12.7°
Maximum altitude 18:00:43 86° 263° (W) 999 4.1 -13.7°
Drops below altitude 10° 18:07:01 10° 175° (S) 2,732 6.3 -14.7°
Sets 18:09:30 0° 175° (S) 3,672 7.0 -15.1°
